Time,TemperatureF,DewpointF,PressureIn,WindDirection,WindDirectionDegrees,WindSpeedMPH,WindSpeedGustMPH,Humidity,HourlyPrecipIn,Conditions,Clouds,dailyrainin,SoftwareType,DateUTC
2013-02-23 00:13:00,36.7,27.0,30.09,ENE,60,1.0,8.0,69,0.00,,,0.00,weatherlink.com 1.10,2013-02-23 00:13:00,
2013-02-23 00:28:00,36.9,27.0,30.09,East,88,4.0,7.0,67,0.00,,,0.00,weatherlink.com 1.10,2013-02-23 00:28:00,
2013-02-23 00:43:00,36.8,26.0,30.09,ESE,117,2.0,5.0,66,0.00,,,0.00,weatherlink.com 1.10,2013-02-23 00:43:00,
2013-02-23 00:58:00,36.8,27.0,30.09,East,100,2.0,6.0,67,0.00,,,0.00,weatherlink.com 1.10,2013-02-23 00:58:00,
2013-02-23 01:13:00,36.8,26.0,30.09,East,94,2.0,11.0,66,0.00,,,0.00,weatherlink.com 1.10,2013-02-23 01:13:00,
2013-02-23 01:28:00,36.8,26.0,30.08,East,95,2.0,4.0,65,0.00,,,0.00,weatherlink.com 1.10,2013-02-23 01:28:00,
2013-02-23 01:43:00,36.7,26.0,30.09,East,89,2.0,4.0,66,0.00,,,0.00,weatherlink.com 1.10,2013-02-23 01:43:00,
2013-02-23 01:58:00,36.8,27.0,30.08,ESE,105,2.0,6.0,69,0.00,,,0.00,weatherlink.com 1.10,2013-02-23 01:58:00,
2013-02-23 02:13:00,36.7,27.0,30.08,North,356,3.0,10.0,67,0.00,,,0.00,weatherlink.com 1.10,2013-02-23 02:13:00,
2013-02-23 02:28:00,36.7,26.0,30.08,East,79,2.0,8.0,66,0.00,,,0.00,weatherlink.com 1.10,2013-02-23 02:28:00,
2013-02-23 02:43:00,36.6,26.0,30.08,ESE,105,6.0,7.0,66,0.00,,,0.00,weatherlink.com 1.10,2013-02-23 02:43:00,
2013-02-23 02:58:00,36.6,27.0,30.08,SE,130,1.0,3.0,68,0.00,,,0.00,weatherlink.com 1.10,2013-02-23 02:58:00,
2013-02-23 03:13:00,36.5,26.0,30.08,NE,56,4.0,5.0,67,0.00,,,0.00,weatherlink.com 1.10,2013-02-23 03:13:00,
2013-02-23 03:28:00,36.5,26.0,30.08,ESE,103,3.0,7.0,67,0.00,,,0.00,weatherlink.com 1.10,2013-02-23 03:28:00,
2013-02-23 03:43:00,36.3,26.0,30.08,East,81,2.0,6.0,66,0.00,,,0.00,weatherlink.com 1.10,2013-02-23 03:43:00,
2013-02-23 03:58:00,36.3,25.0,30.08,East,79,2.0,6.0,65,0.00,,,0.00,weatherlink.com 1.10,2013-02-23 03:58:00,
2013-02-23 04:13:00,36.3,25.0,30.08,East,91,2.0,8.0,63,0.00,,,0.00,weatherlink.com 1.10,2013-02-23 04:13:00,
2013-02-23 04:28:00,36.2,25.0,30.08,ESE,110,1.0,5.0,64,0.00,,,0.00,weatherlink.com 1.10,2013-02-23 04:28:00,
2013-02-23 04:43:00,36.1,25.0,30.08,SE,124,1.0,6.0,64,0.00,,,0.00,weatherlink.com 1.10,2013-02-23 04:43:00,
2013-02-23 04:58:00,36.1,25.0,30.08,East,101,1.0,4.0,64,0.00,,,0.00,weatherlink.com 1.10,2013-02-23 04:58:00,
2013-02-23 05:13:00,36.0,25.0,30.09,East,94,2.0,2.0,65,0.00,,,0.00,weatherlink.com 1.10,2013-02-23 05:13:00,
2013-02-23 05:28:00,36.1,24.0,30.09,ENE,70,3.0,5.0,61,0.00,,,0.00,weatherlink.com 1.10,2013-02-23 05:28:00,
2013-02-23 05:43:00,36.3,24.0,30.09,NE,37,2.0,4.0,61,0.00,,,0.00,weatherlink.com 1.10,2013-02-23 05:43:00,
2013-02-23 05:58:00,36.3,24.0,30.09,ESE,107,2.0,3.0,61,0.00,,,0.00,weatherlink.com 1.10,2013-02-23 05:58:00,
2013-02-23 06:13:00,36.2,24.0,30.09,ESE,117,0.0,1.0,62,0.00,,,0.00,weatherlink.com 1.10,2013-02-23 06:13:00,
2013-02-23 06:28:00,36.0,25.0,30.09,ESE,116,0.0,0.0,64,0.00,,,0.00,weatherlink.com 1.10,2013-02-23 06:28:00,
2013-02-23 06:43:00,35.7,25.0,30.09,North,9,1.0,2.0,65,0.00,,,0.00,weatherlink.com 1.10,2013-02-23 06:43:00,
2013-02-23 06:59:00,35.5,25.0,30.09,North,8,0.0,1.0,66,0.00,,,0.00,weatherlink.com 1.10,2013-02-23 06:59:00,
2013-02-23 07:14:00,35.3,25.0,30.09,NNW,347,0.0,1.0,67,0.00,,,0.00,weatherlink.com 1.10,2013-02-23 07:14:00,
2013-02-23 07:29:00,35.2,26.0,30.10,West,280,0.0,1.0,69,0.00,,,0.00,weatherlink.com 1.10,2013-02-23 07:29:00,
2013-02-23 07:44:00,35.2,26.0,30.10,West,270,0.0,1.0,69,0.00,,,0.00,weatherlink.com 1.10,2013-02-23 07:44:00,
2013-02-23 07:59:00,35.1,26.0,30.10,West,267,0.0,1.0,70,0.00,,,0.00,weatherlink.com 1.10,2013-02-23 07:59:00,
2013-02-23 08:14:00,35.2,26.0,30.10,West,271,1.0,2.0,70,0.00,,,0.00,weatherlink.com 1.10,2013-02-23 08:14:00,
2013-02-23 08:29:00,35.2,26.0,30.10,WSW,255,0.0,2.0,70,0.00,,,0.00,weatherlink.com 1.10,2013-02-23 08:29:00,
2013-02-23 08:44:00,35.2,27.0,30.10,West,268,1.0,2.0,71,0.00,,,0.00,weatherlink.com 1.10,2013-02-23 08:44:00,
2013-02-23 08:59:00,35.3,27.0,30.10,SW,236,0.0,2.0,72,0.00,,,0.00,weatherlink.com 1.10,2013-02-23 08:59:00,
2013-02-23 09:14:00,35.3,28.0,30.11,WSW,256,0.0,2.0,74,0.00,,,0.00,weatherlink.com 1.10,2013-02-23 09:14:00,
2013-02-23 09:29:00,35.4,28.0,30.11,WNW,288,0.0,1.0,75,0.00,,,0.00,weatherlink.com 1.10,2013-02-23 09:29:00,
2013-02-23 09:44:00,35.4,29.0,30.11,SSW,203,1.0,3.0,76,0.00,,,0.00,weatherlink.com 1.10,2013-02-23 09:44:00,
2013-02-23 09:59:00,35.3,29.0,30.11,NNW,333,0.0,3.0,77,0.00,,,0.00,weatherlink.com 1.10,2013-02-23 09:59:00,
2013-02-23 10:14:00,35.5,29.0,30.11,WSW,243,0.0,1.0,77,0.00,,,0.00,weatherlink.com 1.10,2013-02-23 10:14:00,
2013-02-23 10:29:00,35.5,29.0,30.11,NNW,335,1.0,4.0,77,0.00,,,0.00,weatherlink.com 1.10,2013-02-23 10:29:00,
2013-02-23 10:44:00,35.5,29.0,30.10,WSW,253,1.0,4.0,78,0.00,,,0.00,weatherlink.com 1.10,2013-02-23 10:44:00,
2013-02-23 10:59:00,35.8,30.0,30.11,WNW,290,1.0,4.0,78,0.00,,,0.00,weatherlink.com 1.10,2013-02-23 10:59:00,
2013-02-23 11:14:00,36.0,29.0,30.11,SW,215,0.0,3.0,77,0.00,,,0.00,weatherlink.com 1.10,2013-02-23 11:14:00,
2013-02-23 11:29:00,36.0,29.0,30.11,NNE,29,3.0,5.0,77,0.00,,,0.00,weatherlink.com 1.10,2013-02-23 11:29:00,
2013-02-23 11:44:00,36.0,30.0,30.11,WSW,243,0.0,6.0,78,0.00,,,0.00,weatherlink.com 1.10,2013-02-23 11:44:00,
2013-02-23 11:59:00,36.3,30.0,30.11,North,11,3.0,3.0,78,0.00,,,0.00,weatherlink.com 1.10,2013-02-23 11:59:00,
2013-02-23 12:14:00,36.4,30.0,30.11,NNW,329,1.0,3.0,77,0.00,,,0.00,weatherlink.com 1.10,2013-02-23 12:14:00,
2013-02-23 12:29:00,36.4,30.0,30.11,NW,314,2.0,5.0,77,0.00,,,0.00,weatherlink.com 1.10,2013-02-23 12:29:00,
2013-02-23 12:44:00,36.5,30.0,30.10,WSW,250,0.0,5.0,77,0.00,,,0.00,weatherlink.com 1.10,2013-02-23 12:44:00,
2013-02-23 12:59:00,36.5,30.0,30.11,North,356,3.0,6.0,77,0.00,,,0.00,weatherlink.com 1.10,2013-02-23 12:59:00,
2013-02-23 13:14:00,36.0,30.0,30.11,North,8,9.0,11.0,80,0.00,,,0.00,weatherlink.com 1.10,2013-02-23 13:14:00,
2013-02-23 13:29:00,35.0,32.0,30.11,NNE,27,6.0,9.0,87,0.00,,,0.00,weatherlink.com 1.10,2013-02-23 13:29:00,
2013-02-23 13:44:00,34.2,32.0,30.11,NNW,345,2.0,6.0,90,0.00,,,0.00,weatherlink.com 1.10,2013-02-23 13:44:00,
2013-02-23 13:59:00,34.2,32.0,30.10,NNE,18,2.0,4.0,91,0.00,,,0.00,weatherlink.com 1.10,2013-02-23 13:59:00,
2013-02-23 14:14:00,34.8,33.0,30.10,NNW,348,1.0,4.0,91,0.01,,,0.01,weatherlink.com 1.10,2013-02-23 14:14:00,
2013-02-23 14:29:00,35.5,33.0,30.10,North,6,0.0,3.0,90,0.01,,,0.01,weatherlink.com 1.10,2013-02-23 14:29:00,
2013-02-23 14:44:00,35.6,33.0,30.10,North,349,2.0,6.0,89,0.01,,,0.01,weatherlink.com 1.10,2013-02-23 14:44:00,
2013-02-23 14:59:00,35.7,32.0,30.10,NE,37,7.0,7.0,85,0.01,,,0.01,weatherlink.com 1.10,2013-02-23 14:59:00,
2013-02-23 15:14:00,35.4,31.0,30.10,NE,51,6.0,7.0,85,0.00,,,0.01,weatherlink.com 1.10,2013-02-23 15:14:00,
2013-02-23 15:29:00,35.6,32.0,30.09,NE,44,2.0,7.0,85,0.00,,,0.01,weatherlink.com 1.10,2013-02-23 15:29:00,
2013-02-23 15:44:00,35.6,31.0,30.10,NNE,23,4.0,11.0,84,0.01,,,0.02,weatherlink.com 1.10,2013-02-23 15:44:00,
2013-02-23 15:59:00,35.5,31.0,30.10,East,86,2.0,10.0,84,0.01,,,0.02,weatherlink.com 1.10,2013-02-23 15:59:00,
2013-02-23 16:14:00,35.2,31.0,30.11,NNE,23,3.0,8.0,84,0.01,,,0.02,weatherlink.com 1.10,2013-02-23 16:14:00,
2013-02-23 16:29:00,34.7,30.0,30.11,NE,34,6.0,8.0,84,0.01,,,0.02,weatherlink.com 1.10,2013-02-23 16:29:00,
2013-02-23 16:44:00,34.5,31.0,30.11,NNW,340,2.0,8.0,85,0.00,,,0.02,weatherlink.com 1.10,2013-02-23 16:44:00,
2013-02-23 16:59:00,34.7,30.0,30.11,NE,35,7.0,8.0,84,0.00,,,0.02,weatherlink.com 1.10,2013-02-23 16:59:00,
2013-02-23 17:14:00,34.8,30.0,30.11,NNW,347,1.0,6.0,83,0.00,,,0.02,weatherlink.com 1.10,2013-02-23 17:14:00,
2013-02-23 17:29:00,34.8,30.0,30.11,NNE,26,4.0,6.0,83,0.00,,,0.02,weatherlink.com 1.10,2013-02-23 17:29:00,
2013-02-23 17:44:00,34.6,30.0,30.12,NNE,23,4.0,9.0,83,0.00,,,0.02,weatherlink.com 1.10,2013-02-23 17:44:00,
2013-02-23 17:59:00,34.6,30.0,30.12,NNE,30,2.0,8.0,83,0.00,,,0.02,weatherlink.com 1.10,2013-02-23 17:59:00,
2013-02-23 18:14:00,34.2,30.0,30.13,NNE,32,4.0,7.0,84,0.00,,,0.02,weatherlink.com 1.10,2013-02-23 18:14:00,
2013-02-23 18:29:00,33.8,30.0,30.13,NNE,16,0.0,5.0,86,0.00,,,0.02,weatherlink.com 1.10,2013-02-23 18:29:00,
2013-02-23 18:44:00,33.9,30.0,30.13,NW,315,0.0,3.0,86,0.00,,,0.02,weatherlink.com 1.10,2013-02-23 18:44:00,
2013-02-23 18:59:00,33.9,30.0,30.14,WSW,249,1.0,1.0,86,0.00,,,0.02,weatherlink.com 1.10,2013-02-23 18:59:00,
2013-02-23 19:14:00,34.0,30.0,30.14,WSW,248,0.0,2.0,86,0.00,,,0.02,weatherlink.com 1.10,2013-02-23 19:14:00,
2013-02-23 19:29:00,34.0,31.0,30.14,West,281,0.0,2.0,87,0.00,,,0.02,weatherlink.com 1.10,2013-02-23 19:29:00,
2013-02-23 19:44:00,34.0,31.0,30.14,West,260,1.0,1.0,87,0.00,,,0.02,weatherlink.com 1.10,2013-02-23 19:44:00,
2013-02-23 19:59:00,34.0,31.0,30.14,WSW,256,0.0,2.0,87,0.00,,,0.02,weatherlink.com 1.10,2013-02-23 19:59:00,
2013-02-23 20:15:00,33.9,31.0,30.14,WSW,243,0.0,2.0,88,0.00,,,0.02,weatherlink.com 1.10,2013-02-23 20:15:00,
2013-02-23 20:30:00,33.9,31.0,30.14,WSW,253,0.0,1.0,88,0.00,,,0.02,weatherlink.com 1.10,2013-02-23 20:30:00,
2013-02-23 20:45:00,33.9,31.0,30.14,WSW,246,1.0,3.0,89,0.00,,,0.02,weatherlink.com 1.10,2013-02-23 20:45:00,
2013-02-23 21:00:00,34.0,31.0,30.15,WSW,252,1.0,2.0,88,0.00,,,0.02,weatherlink.com 1.10,2013-02-23 21:00:00,
2013-02-23 21:15:00,34.0,31.0,30.15,WSW,248,0.0,1.0,88,0.00,,,0.02,weatherlink.com 1.10,2013-02-23 21:15:00,
2013-02-23 21:30:00,33.9,31.0,30.15,WSW,239,1.0,2.0,89,0.00,,,0.02,weatherlink.com 1.10,2013-02-23 21:30:00,
2013-02-23 21:45:00,34.0,31.0,30.16,West,267,0.0,1.0,89,0.00,,,0.02,weatherlink.com 1.10,2013-02-23 21:45:00,
2013-02-23 22:00:00,34.0,31.0,30.16,West,262,0.0,1.0,89,0.00,,,0.02,weatherlink.com 1.10,2013-02-23 22:00:00,
2013-02-23 22:15:00,34.1,31.0,30.17,West,259,1.0,2.0,89,0.00,,,0.02,weatherlink.com 1.10,2013-02-23 22:15:00,
2013-02-23 22:30:00,34.0,31.0,30.17,WSW,246,0.0,2.0,89,0.00,,,0.02,weatherlink.com 1.10,2013-02-23 22:30:00,
2013-02-23 22:45:00,34.1,31.0,30.17,WSW,255,1.0,2.0,89,0.00,,,0.02,weatherlink.com 1.10,2013-02-23 22:45:00,
2013-02-23 23:00:00,34.2,31.0,30.17,West,259,0.0,2.0,89,0.00,,,0.02,weatherlink.com 1.10,2013-02-23 23:00:00,
2013-02-23 23:15:00,34.3,31.0,30.17,SW,214,0.0,0.0,89,0.00,,,0.02,weatherlink.com 1.10,2013-02-23 23:15:00,
2013-02-23 23:30:00,34.4,32.0,30.17,SSW,213,0.0,0.0,89,0.00,,,0.02,weatherlink.com 1.10,2013-02-23 23:30:00,
2013-02-23 23:45:00,34.5,32.0,30.18,SW,217,0.0,1.0,89,0.00,,,0.02,weatherlink.com 1.10,2013-02-23 23:45:00,